Phoenix Deer Valley, AZ

1:58 AM MST on March 27, 2017 (GMT -0700)
Phoenix-Deer Valley Municipal

Weather History for KDVT - December, 2013

Change the Weather History Date:

Saturday, December 28, 2013

  Actual Average Record
Temperature  
Mean Temperature 54 °F -  
Max Temperature 63 °F 61 °F 73 °F (1999)
Min Temperature 44 °F 41 °F 32 °F (2003)
Degree Days  
Heating Degree Days 12    
Growing Degree Days 4 (Base 50)    
Moisture  
Dew Point 28 °F    
Average Humidity 38    
Maximum Humidity 53    
Minimum Humidity 24    
Precipitation  
Precipitation 0.00 in - - ()
Sea Level Pressure  
Sea Level Pressure 29.99 in    
Wind  
Wind Speed 4 mph (NNE)    
Max Wind Speed 8 mph    
Max Gust Speed -    
Visibility 10 miles    
Events      
Averages and records for this station are not official NWS values.
T = Trace of Precipitation, MM = Missing Value Source: NWS Daily Summary

Daily Weather History Graph

Daily Weather History Graph

Search for Another Location

Airport or City:

Trip Planner

Search our weather history database for the weather conditions in past years. The results will help you decide how hot, cold, wet, or windy it might be!

Date:

Astronomy

Dec. 28, 2013 Rise Set
Actual Time 7:32 AM MST 5:28 PM MST
Civil Twilight 7:04 AM MST 5:55 PM MST
Nautical Twilight 6:33 AM MST 6:26 PM MST
Astronomical Twilight 6:02 AM MST 6:57 PM MST
Moon 3:19 AM MST (12/28) 2:16 PM MST (12/28)
Length of Visible Light 10h 51m
Length of Day
9h 56m
Waning Crescent, 18% of the Moon is Illuminated
Dec 28
Waning Crescent
Jan 1
New
Jan 7
First Quarter
Jan 15
Full
Jan 23
Last Quarter

Hourly Weather History & Observations

Time (MST) Temp. Dew Point Humidity Pressure Visibility Wind Dir Wind Speed Gust Speed Precip Events Conditions
12:53 AM 54.0 °F 24.1 °F 31% 30.07 in 10.0 mi ENE 8.1 mph - N/A   Clear
1:53 AM 51.1 °F 26.1 °F 38% 30.07 in 10.0 mi NNE 6.9 mph - N/A   Clear
2:53 AM 52.0 °F 24.1 °F 34% 30.06 in 10.0 mi NE 5.8 mph - N/A   Clear
3:53 AM 52.0 °F 23.0 °F 32% 30.04 in 10.0 mi NE 6.9 mph - N/A   Clear
4:53 AM 50.0 °F 24.1 °F 36% 30.04 in 10.0 mi NE 4.6 mph - N/A   Clear
5:53 AM 44.1 °F 27.0 °F 51% 30.05 in 10.0 mi Calm Calm - N/A   Clear
6:53 AM 44.1 °F 28.0 °F 53% 30.05 in 10.0 mi Calm Calm - N/A   Clear
7:53 AM 45.0 °F 27.0 °F 49% 30.05 in 10.0 mi Calm Calm - N/A   Clear
8:53 AM 50.0 °F 28.9 °F 44% 30.06 in 10.0 mi Calm Calm - N/A   Clear
9:53 AM 55.0 °F 27.0 °F 34% 30.07 in 10.0 mi NNE 3.5 mph - N/A   Clear
10:53 AM 59.0 °F 28.0 °F 31% 30.05 in 10.0 mi Calm Calm - N/A   Clear
11:53 AM 60.1 °F 28.9 °F 31% 30.02 in 10.0 mi Calm Calm - N/A   Clear
12:53 PM 61.0 °F 26.1 °F 26% 29.98 in 10.0 mi SSW 3.5 mph - N/A   Clear
1:53 PM 62.1 °F 26.1 °F 25% 29.95 in 10.0 mi West 5.8 mph - N/A   Clear
2:53 PM 63.0 °F 25.0 °F 24% 29.93 in 10.0 mi Calm Calm - N/A   Clear
3:53 PM 62.1 °F 27.0 °F 26% 29.92 in 10.0 mi NW 4.6 mph - N/A   Clear
4:53 PM 60.1 °F 28.9 °F 31% 29.93 in 10.0 mi NW 3.5 mph - N/A   Clear
5:53 PM 59.0 °F 28.9 °F 32% 29.92 in 10.0 mi NE 3.5 mph - N/A   Clear
6:53 PM 55.0 °F 35.1 °F 47% 29.92 in 10.0 mi NE 3.5 mph - N/A   Clear
7:53 PM 54.0 °F 35.1 °F 49% 29.94 in 10.0 mi North 5.8 mph - N/A   Clear
8:53 PM 52.0 °F 34.0 °F 50% 29.93 in 10.0 mi NNE 5.8 mph - N/A   Clear
9:53 PM 50.0 °F 33.1 °F 52% 29.94 in 10.0 mi North 3.5 mph - N/A   Clear
10:53 PM 50.0 °F 32.0 °F 50% 29.93 in 10.0 mi Calm Calm - N/A   Clear
11:53 PM 50.0 °F 28.9 °F 44% 29.93 in 10.0 mi North 6.9 mph - N/A   Clear